sat.trackr.live / text

‹ back to catalog

STARLINK-1309

NORAD 45414 · 2020-019BG

PAYLOAD ACTIVE UNKNOWN

§ Identity

Operator
Country
US
Launch date
2020-03-18
Launch site
AFETR
Launch vehicle
Mass (kg)
RCS (m²)

Purposes: comms

External: N2YO · Heavens-Above · Gunter

§ Orbital elements

Epoch: 2026-09-20T05:10:49.815840Z

Period
90.55 min
Inclination
53.0500°
Eccentricity
0.0005961
Mean motion
15.90272145 rev/d
Perigee alt
297.5 km
Apogee alt
305.5 km
Semi-major
6,679.7 km
B*
5.0576e-4
RAAN
239.6605°
Arg perigee
55.7600°
Mean anomaly
304.3989°
Rev number
36,062

§ Raw data

STARLINK-13091 45414U 20019BG  26263.21585435  .00154156  19761-4  50576-3 0  99982 45414  53.0500 239.6605 0005961  55.7600 304.3989 15.90272145360627

JSON: /api/v1/satellites/45414 · /tle

For live sub-satellite position, see the globe view (requires WebGL).

§ Visibility from observer

Set your observer location to see the next 7 days of passes ≥ 10°. The values pass through the URL so the page stays shareable.

No JS? Fill the form by hand. The geolocation button needs JavaScript.